INTELSAT 33E DEB, 61991

Orbit data source: Space-Track

INTELSAT 33E DEB, 61991 is space debris in GEO originally from a launch on Wed, 24 Aug 2016 UTC launched from the French Guiana (FRGUI). Debris objects in space refer to the collection of defunct objects orbiting the Earth. Examples of debris include non-operational satellites, rocket bodies, and fragments generated from explosions, collisions, or faulty payload assembly.

Not visible in the next 10 days
Identifier
61991, 2016-053H
Orbit
GEO
Country
Flag of USUS / ITSO
Related business
Manufacturer
Boeing/ES
Mission
Spacecraft
Bus & Motor
Unknown
Mass
Unknown
Launch date (UTC)
2016-08-24 (10 years ago)
Launch vehicle
Unknown
Launch site
French Guiana (FRGUI)
Object type
Payload
Rocket body
Debris
Shape & HBR
Unknown shape, 1.1 m
Radar Cross Section
RCS unknown

Expand to show TLE details & history
Last TLE update: 1 day ago

TLE from 1 day ago
0 INTELSAT 33E DEB
1 61991U 16053H   26120.59544392  .00000032  00000-0  00000-0 0  9998
2 61991   1.5475  92.7909 0120867 255.9213 102.9917  1.02041491  5700
Epoch: 2026-04-30T14:17Z
TLE epoch observation values (Epoch: 2026-04-30T14:17:26.354Z)
Latitude
-0°
Longitude
20.14789°
Altitude
35,413.455 km
Speed
3.084 km/s
True Right ascension
06h 12m 11s
True Declination
0° 00' 00"
Sunlit
Object was in daylight at epoch
Visualization orbit readout
Latitude
Unknown
Longitude
Unknown
Altitude
Unknown
Speed
Unknown
Apparent Right ascension
Unknown
Apparent Declination
Unknown
Sunlit
N/A
Visualization observer readout
Local Sidereal Time
23:06:41
Azimuth
Unknown
Elevation
Unknown
Doppler factor
Unknown
Orbital elements
Apogee altitude
35,802.484 km
Perigee altitude
34,795.012 km
Semi-major axis
41,676.885 km
Eccentricity
0.01209
Inclination
1.5475°
RAAN
92.7909°
Arg. of periapsis
255.9213°
True anomaly
104.33659°
Mean anomaly
102.9917°
Eccentric anomaly
103.66462°
Mean motion
0.25509 °/min
Orbital period
1,411.24 mins
BSTAR
0
Loading maneuver chart data...
Computing Atmospheric mass density...
Loading historical data...
Loading historical data...
Loading historical data...
Loading historical data...
Loading historical data...
Loading historical data...
Loading historical data...

Documentation

Showing up to 5 results
|